| time (UTC) | temp F | wind direction | speed MPH | gust MPH | rain 1hr in | rain 24hr in | rain mn in | humidity % | barometer mb |
| 20260906222002 | 70 | 347 | 2.0 | 6.0 | 0.00 | 0.78 | 0.79 | 95 | 1012.5 |
| 20260906221502 | 69 | 304 | 1.0 | 7.0 | 0.05 | 0.79 | 0.79 | 94 | 1012.7 |
| 20260906220937 | 71 | 6 | 0.0 | 3.0 | 0.05 | 0.78 | 0.79 | 95 | 1012.8 |
| 20260906220004 | 70 | 274 | 0.0 | 8.0 | 0.06 | 0.79 | 0.79 | 96 | 1012.8 |
| 20260906215947 | 70 | 274 | 1.0 | 9.0 | 0.05 | 0.78 | 0.79 | 96 | 1012.8 |
| 20260906215008 | 70 | 53 | 2.0 | 9.0 | 0.23 | 0.78 | 0.77 | 96 | 1012.8 |
| 20260906214602 | 69 | 41 | 1.0 | 10.0 | 0.06 | 0.77 | 0.77 | 95 | 1013.2 |
| 20260906213935 | 70 | 328 | 0.0 | 5.0 | 0.00 | 0.74 | 0.75 | 94 | 1013.6 |
| 20260906213005 | 70 | 323 | 0.0 | 3.0 | 0.04 | 0.75 | 0.75 | 96 | 1012.9 |
| 20260906212908 | 70 | 323 | 0.0 | 2.0 | 0.04 | 0.74 | 0.75 | 96 | 1012.7 |
| 20260906211930 | 70 | 146 | 0.0 | 1.0 | 0.04 | 0.73 | 0.74 | 95 | 1012.7 |
| 20260906211613 | 70 | 229 | 0.0 | 2.0 | 0.04 | 0.74 | 0.74 | 96 | 1012.8 |
| 20260906210954 | 70 | 12 | 0.0 | 1.0 | 0.08 | 0.73 | 0.74 | 96 | 1012.6 |
| 20260906210112 | 69 | 41 | 0.0 | 5.0 | 0.03 | 0.73 | 0.73 | 96 | 1012.5 |
| 20260906205943 | 69 | 46 | 1.0 | 4.0 | 0.17 | 0.72 | 0.73 | 96 | 1012.3 |
| 20260906204936 | 69 | 329 | 0.0 | 3.0 | 0.00 | 0.71 | 0.71 | 96 | 1012.6 |
| 20260906204503 | 69 | 23 | 0.0 | 3.0 | 0.01 | 0.71 | 0.71 | 96 | 1012.3 |
| 20260906203949 | 69 | 162 | 0.0 | 0.0 | 0.00 | 0.71 | 0.71 | 96 | 1012.5 |
| 20260906203104 | 68 | 237 | 0.0 | 2.0 | 0.03 | 0.71 | 0.71 | 96 | 1013.0 |
| 20260906201823 | 68 | 259 | 0.0 | 0.0 | 0.00 | 0.70 | 0.70 | 96 | 1012.8 |
| 20260906201503 | 68 | 259 | 0.0 | 1.0 | 0.02 | 0.70 | 0.70 | 96 | 1013.1 |
| 20260906200837 | 68 | 307 | 0.0 | 0.0 | 0.00 | 0.70 | 0.70 | 96 | 1013.3 |
| 20260906200005 | 67 | 319 | 1.0 | 3.0 | 0.04 | 0.70 | 0.70 | 96 | 1013.4 |
| 20260906195846 | 67 | 332 | 0.0 | 0.0 | 0.04 | 0.70 | 0.70 | 96 | 1013.4 |
| 20260906194836 | 67 | 311 | 0.0 | 8.0 | 0.13 | 0.70 | 0.70 | 96 | 1013.6 |
| 20260906194630 | 67 | 297 | 0.0 | 9.0 | 0.08 | 0.70 | 0.70 | 96 | 1013.5 |
| 20260906193001 | 67 | 303 | 2.0 | 5.0 | 0.10 | 0.68 | 0.68 | 95 | 1013.7 |
| 20260906192744 | 68 | 321 | 0.0 | 2.0 | 0.00 | 0.67 | 0.68 | 96 | 1013.5 |
| 20260906191735 | 67 | 342 | 1.0 | 4.0 | 0.06 | 0.67 | 0.68 | 96 | 1013.6 |
| 20260906191608 | 67 | 335 | 2.0 | 5.0 | 0.10 | 0.68 | 0.68 | 96 | 1013.6 |
| 20260906190752 | 67 | 312 | 0.0 | 0.0 | 0.10 | 0.66 | 0.67 | 96 | 1013.7 |
| 20260906185748 | 66 | 312 | 1.0 | 2.0 | 0.16 | 0.64 | 0.65 | 96 | 1014.0 |
| 20260906184502 | 65 | 320 | 0.0 | 1.0 | 0.09 | 0.62 | 0.62 | 95 | 1014.0 |
| 20260906183612 | 66 | 322 | 0.0 | 2.0 | 0.00 | 0.59 | 0.59 | 95 | 1014.1 |
| 20260906183105 | 66 | 327 | 1.0 | 3.0 | 0.06 | 0.57 | 0.57 | 94 | 1014.5 |
| 20260906182609 | 67 | 237 | 0.0 | 0.0 | 0.05 | 0.58 | 0.57 | 95 | 1014.2 |
| 20260906181622 | 67 | 237 | 0.0 | 0.0 | 0.06 | 0.58 | 0.57 | 95 | 1014.3 |
| 20260906181502 | 66 | 237 | 0.0 | 1.0 | 0.09 | 0.57 | 0.57 | 95 | 1014.4 |
| 20260906180547 | 67 | 240 | 0.0 | 1.0 | 0.18 | 0.56 | 0.57 | 95 | 1014.6 |
| 20260906180002 | 66 | 338 | 0.0 | 1.0 | 0.08 | 0.56 | 0.56 | 95 | 1014.5 |
| 20260906174503 | 66 | 338 | 0.0 | 0.0 | 0.09 | 0.53 | 0.53 | 96 | 1014.9 |
| 20260906173225 | 65 | 338 | 0.0 | 0.0 | 0.09 | 0.52 | 0.52 | 95 | 1014.9 |
| 20260906173102 | 65 | 338 | 0.0 | 1.0 | 0.15 | 0.52 | 0.52 | 95 | 1014.9 |
| 20260906172205 | 65 | 341 | 0.0 | 2.0 | 0.05 | 0.49 | 0.50 | 95 | 1014.8 |
| 20260906171503 | 64 | 320 | 0.0 | 1.0 | 0.16 | 0.49 | 0.49 | 95 | 1014.7 |
| 20260906171134 | 65 | 320 | 0.0 | 0.0 | 0.05 | 0.49 | 0.49 | 94 | 1014.4 |
| 20260906170100 | 65 | 264 | 0.0 | 0.0 | 0.12 | 0.48 | 0.48 | 95 | 1013.9 |
| 20260906165101 | 65 | 314 | 0.0 | 0.0 | 0.23 | 0.46 | 0.47 | 94 | 1013.9 |
| 20260906164502 | 65 | 336 | 0.0 | 1.0 | 0.16 | 0.44 | 0.44 | 94 | 1014.0 |
| 20260906164054 | 65 | 34 | 0.0 | 0.0 | 0.27 | 0.40 | 0.42 | 95 | 1014.0 |
| 20260906163113 | 65 | 35 | 0.0 | 1.0 | 0.18 | 0.36 | 0.37 | 94 | 1014.1 |
| 20260906163102 | 64 | 35 | 1.0 | 2.0 | 0.11 | 0.37 | 0.37 | 94 | 1014.2 |
| 20260906161502 | 64 | 36 | 0.0 | 2.0 | 0.07 | 0.33 | 0.33 | 94 | 1013.9 |
| 20260906161004 | 64 | 29 | 0.0 | 0.0 | 0.19 | 0.31 | 0.31 | 94 | 1013.9 |
| 20260906160009 | 64 | 304 | 0.0 | 0.0 | 0.00 | 0.27 | 0.28 | 93 | 1013.6 |
| 20260906155000 | 64 | 30 | 0.0 | 3.0 | 0.06 | 0.27 | 0.27 | 94 | 1013.2 |
| 20260906154507 | 63 | 339 | 0.0 | 1.0 | 0.03 | 0.28 | 0.28 | 93 | 1013.2 |
| 20260906153926 | 64 | 343 | 0.0 | 0.0 | 0.00 | 0.26 | 0.27 | 94 | 1012.9 |
| 20260906153104 | 63 | 327 | 0.0 | 2.0 | 0.03 | 0.26 | 0.26 | 93 | 1012.6 |
| 20260906152931 | 63 | 327 | 0.0 | 1.0 | 0.00 | 0.26 | 0.26 | 93 | 1012.6 |
| 20260906151859 | 64 | 307 | 0.0 | 3.0 | 0.00 | 0.26 | 0.26 | 92 | 1012.3 |
| 20260906151503 | 64 | 348 | 0.0 | 1.0 | 0.04 | 0.26 | 0.26 | 94 | 1012.3 |
| 20260906150828 | 64 | 352 | 0.0 | 0.0 | 0.00 | 0.26 | 0.26 | 94 | 1012.2 |
| 20260906150011 | 63 | 314 | 0.0 | 1.0 | 0.04 | 0.26 | 0.26 | 94 | 1012.4 |
| 20260906145807 | 63 | 314 | 0.0 | 0.0 | 0.08 | 0.26 | 0.26 | 94 | 1012.3 |
| 20260906144622 | 62 | 41 | 0.0 | 3.0 | 0.03 | 0.25 | 0.25 | 92 | 1012.4 |
| 20260906143737 | 62 | 342 | 0.0 | 3.0 | 0.00 | 0.23 | 0.23 | 92 | 1012.1 |
| 20260906143002 | 62 | 131 | 0.0 | 2.0 | 0.01 | 0.22 | 0.22 | 91 | 1012.2 |
| 20260906142722 | 62 | 256 | 0.0 | 1.0 | 0.00 | 0.21 | 0.21 | 91 | 1012.1 |
| 20260906141703 | 63 | 345 | 0.0 | 0.0 | 0.00 | 0.21 | 0.21 | 90 | 1012.4 |
| 20260906141502 | 62 | 345 | 0.0 | 3.0 | 0.02 | 0.22 | 0.22 | 91 | 1012.4 |
| 20260906140718 | 62 | 355 | 1.0 | 2.0 | 0.00 | 0.21 | 0.21 | 90 | 1012.5 |
| 20260906140003 | 62 | 278 | 3.0 | 6.0 | 0.05 | 0.22 | 0.22 | 90 | 1012.6 |
| 20260906135655 | 62 | 311 | 1.0 | 5.0 | 0.00 | 0.21 | 0.21 | 91 | 1012.4 |
| 20260906134637 | 63 | 351 | 0.0 | 0.0 | 0.00 | 0.21 | 0.21 | 90 | 1012.6 |
| 20260906134608 | 62 | 351 | 0.0 | 1.0 | 0.11 | 0.22 | 0.22 | 90 | 1012.6 |
| 20260906133646 | 63 | 40 | 0.0 | 1.0 | 0.04 | 0.21 | 0.21 | 89 | 1012.6 |
| 20260906133002 | 62 | 262 | 0.0 | 1.0 | 0.18 | 0.21 | 0.21 | 88 | 1012.7 |
| 20260906132654 | 63 | 263 | 0.0 | 0.0 | 0.09 | 0.21 | 0.21 | 88 | 1012.5 |
| 20260906131719 | 63 | 221 | 3.0 | 9.0 | 0.12 | 0.19 | 0.20 | 84 | 1012.2 |
| 20260906131603 | 63 | 359 | 4.0 | 11.0 | 0.20 | 0.20 | 0.20 | 84 | 1012.1 |
| 20260906130651 | 64 | 34 | 0.0 | 5.0 | 0.12 | 0.18 | 0.18 | 89 | 1012.8 |
| 20260906130103 | 63 | 1 | 0.0 | 2.0 | 0.17 | 0.17 | 0.17 | 88 | 1013.3 |
| 20260906125656 | 64 | 336 | 0.0 | 1.0 | 0.74 | 0.13 | 0.15 | 87 | 1013.3 |
| 20260906124640 | 64 | 346 | 1.0 | 2.0 | 0.17 | 0.10 | 0.10 | 83 | 1013.2 |
| 20260906124502 | 64 | 342 | 2.0 | 3.0 | 0.11 | 0.11 | 0.11 | 84 | 1013.0 |
| 20260906123648 | 66 | 355 | 0.0 | 3.0 | 0.38 | 0.06 | 0.06 | 80 | 1012.3 |
| 20260906123105 | 68 | 41 | 1.0 | 4.0 | 0.04 | 0.04 | 0.04 | 72 | 1012.2 |
| 20260906121539 | 73 | 50 | 0.0 | 0.0 | 0.00 | 0.00 | 0.00 | 48 | 1011.7 |
| 20260906121503 | 72 | 50 | 0.0 | 1.0 | 0.00 | 0.00 | 0.00 | 48 | 1011.5 |
| 20260906120004 | 72 | 51 | 0.0 | 2.0 | 0.00 | 0.00 | 0.00 | 47 | 1010.9 |
| 20260906115404 | 72 | 50 | 0.0 | 1.0 | 0.00 | 0.00 | 0.00 | 47 | 1011.0 |
| 20260906114502 | 72 | 51 | 0.0 | 0.0 | 0.00 | 0.00 | 0.00 | 47 | 1011.1 |
| 20260906113232 | 72 | 51 | 0.0 | 1.0 | 0.00 | 0.00 | 0.00 | 47 | 1011.1 |
| 20260906113106 | 72 | 17 | 0.0 | 1.0 | 0.00 | 0.00 | 0.00 | 48 | 1011.3 |
| 20260906111602 | 72 | 1 | 0.0 | 1.0 | 0.00 | 0.00 | 0.00 | 48 | 1011.1 |
| 20260906111033 | 73 | 1 | 0.0 | 0.0 | 0.00 | 0.00 | 0.00 | 48 | 1011.2 |
| 20260906110106 | 72 | 1 | 0.0 | 1.0 | 0.00 | 0.00 | 0.00 | 47 | 1011.2 |
| 20260906110013 | 73 | 1 | 0.0 | 0.0 | 0.00 | 0.00 | 0.00 | 47 | 1011.2 |
| 20260906104943 | 73 | 1 | 0.0 | 0.0 | 0.00 | 0.00 | 0.00 | 46 | 1011.0 |
| 20260906104503 | 73 | 1 | 0.0 | 1.0 | 0.00 | 0.00 | 0.00 | 45 | 1011.2 |
| 20260906103958 | 73 | 1 | 0.0 | 0.0 | 0.00 | 0.00 | 0.00 | 44 | 1011.2 |
| 20260906103106 | 73 | 1 | 0.0 | 1.0 | 0.00 | 0.00 | 0.00 | 47 | 1011.1 |
| 20260906103005 | 73 | 1 | 0.0 | 0.0 | 0.00 | 0.00 | 0.00 | 47 | 1011.1 |
| 20260906102025 | 73 | 1 | 0.0 | 0.0 | 0.00 | 0.00 | 0.00 | 46 | 1011.1 |
| 20260906101503 | 73 | 1 | 0.0 | 1.0 | 0.00 | 0.00 | 0.00 | 47 | 1011.1 |
| 20260906100003 | 72 | 1 | 0.0 | 1.0 | 0.00 | 0.00 | 0.00 | 44 | 1011.2 |
| 20260906094738 | 73 | 1 | 0.0 | 0.0 | 0.00 | 0.00 | 0.00 | 45 | 1011.2 |
| 20260906094642 | 72 | 1 | 0.0 | 1.0 | 0.00 | 0.00 | 0.00 | 45 | 1011.2 |
| 20260906093728 | 72 | 1 | 0.0 | 0.0 | 0.00 | 0.00 | 0.00 | 47 | 1011.2 |
| 20260906093003 | 72 | 1 | 0.0 | 1.0 | 0.00 | 0.00 | 0.00 | 47 | 1011.2 |
| 20260906092752 | 72 | 1 | 0.0 | 0.0 | 0.00 | 0.00 | 0.00 | 47 | 1011.2 |
| 20260906091726 | 72 | 1 | 0.0 | 0.0 | 0.00 | 0.00 | 0.00 | 46 | 1011.2 |
| 20260906091615 | 71 | 1 | 0.0 | 1.0 | 0.00 | 0.00 | 0.00 | 45 | 1011.2 |
| 20260906090105 | 71 | 1 | 0.0 | 1.0 | 0.00 | 0.00 | 0.00 | 44 | 1011.3 |
| 20260906085557 | 72 | 1 | 0.0 | 0.0 | 0.00 | 0.00 | 0.00 | 44 | 1011.3 |
| 20260906084612 | 71 | 1 | 0.0 | 0.0 | 0.00 | 0.00 | 0.00 | 44 | 1011.4 |
| 20260906084503 | 71 | 1 | 0.0 | 1.0 | 0.00 | 0.00 | 0.00 | 44 | 1011.4 |
| 20260906083619 | 71 | 342 | 0.0 | 0.0 | 0.00 | 0.00 | 0.00 | 45 | 1011.4 |
| 20260906083103 | 71 | 342 | 0.0 | 0.0 | 0.00 | 0.00 | 0.00 | 47 | 1011.4 |
| 20260906081506 | 71 | 342 | 0.0 | 1.0 | 0.00 | 0.00 | 0.00 | 42 | 1011.7 |
| 20260906081459 | 71 | 342 | 0.0 | 0.0 | 0.00 | 0.00 | 0.00 | 42 | 1011.6 |
| 20260906080425 | 71 | 342 | 0.0 | 0.0 | 0.00 | 0.00 | 0.00 | 45 | 1011.6 |
| 20260906080002 | 71 | 342 | 0.0 | 1.0 | 0.00 | 0.00 | 0.00 | 46 | 1011.6 |
| 20260906075434 | 71 | 342 | 0.0 | 0.0 | 0.00 | 0.00 | 0.00 | 44 | 1011.6 |
| 20260906074611 | 71 | 342 | 0.0 | 1.0 | 0.00 | 0.00 | 0.00 | 48 | 1011.6 |
| 20260906074457 | 72 | 342 | 0.0 | 0.0 | 0.00 | 0.00 | 0.00 | 48 | 1011.5 |
| 20260906073446 | 72 | 342 | 0.0 | 0.0 | 0.00 | 0.00 | 0.00 | 45 | 1011.6 |
| 20260906073005 | 71 | 341 | 0.0 | 2.0 | 0.00 | 0.00 | 0.00 | 46 | 1011.7 |
| 20260906072452 | 72 | 49 | 0.0 | 0.0 | 0.00 | 0.00 | 0.00 | 45 | 1011.6 |
| 20260906071604 | 71 | 341 | 0.0 | 2.0 | 0.00 | 0.00 | 0.00 | 50 | 1011.5 |
| 20260906071431 | 72 | 342 | 0.0 | 1.0 | 0.00 | 0.00 | 0.00 | 49 | 1011.5 |
| 20260906065305 | 72 | 338 | 0.0 | 0.0 | 0.00 | 0.00 | 0.00 | 45 | 1011.3 |
| 20260906064503 | 71 | 337 | 0.0 | 2.0 | 0.00 | 0.00 | 0.00 | 45 | 1011.4 |
| 20260906063107 | 72 | 86 | 0.0 | 0.0 | 0.00 | 0.00 | 0.00 | 45 | 1011.6 |
| 20260906063103 | 71 | 86 | 0.0 | 1.0 | 0.00 | 0.00 | 0.00 | 45 | 1011.6 |
| 20260906062046 | 71 | 86 | 0.0 | 0.0 | 0.00 | 0.00 | 0.00 | 42 | 1011.6 |
| 20260906061506 | 71 | 86 | 0.0 | 1.0 | 0.00 | 0.00 | 0.00 | 45 | 1011.7 |
| 20260906060003 | 72 | 95 | 0.0 | 1.0 | 0.00 | 0.00 | 0.00 | 45 | 1011.7 |
| 20260906055902 | 72 | 95 | 0.0 | 0.0 | 0.00 | 0.00 | 0.00 | 45 | 1011.7 |
| 20260906054922 | 74 | 42 | 0.0 | 0.0 | 0.00 | 0.00 | 0.00 | 45 | 1011.6 |
| 20260906054604 | 73 | 42 | 0.0 | 1.0 | 0.00 | 0.00 | 0.00 | 46 | 1011.7 |
| 20260906053932 | 74 | 25 | 0.0 | 1.0 | 0.00 | 0.00 | 0.00 | 46 | 1011.6 |
| 20260906053003 | 73 | 244 | 0.0 | 1.0 | 0.00 | 0.00 | 0.00 | 43 | 1011.7 |
| 20260906052921 | 74 | 244 | 0.0 | 0.0 | 0.00 | 0.00 | 0.00 | 43 | 1011.7 |
| 20260906051602 | 72 | 211 | 0.0 | 1.0 | 0.00 | 0.00 | 0.00 | 42 | 1011.9 |
| 20260906050726 | 72 | 211 | 0.0 | 0.0 | 0.00 | 0.00 | 0.00 | 41 | 1011.7 |
| 20260906050128 | 71 | 211 | 0.0 | 1.0 | 0.00 | 0.00 | 0.00 | 43 | 1011.8 |
| 20260906044504 | 72 | 211 | 0.0 | 1.0 | 0.00 | 0.00 | 0.00 | 43 | 1011.8 |
| 20260906043422 | 72 | 211 | 0.0 | 0.0 | 0.00 | 0.00 | 0.00 | 45 | 1011.8 |
| 20260906043102 | 72 | 211 | 1.0 | 1.0 | 0.00 | 0.00 | 0.00 | 44 | 1011.9 |
| 20260906042434 | 73 | 211 | 0.0 | 0.0 | 0.00 | 0.00 | 0.00 | 43 | 1011.8 |
| 20260906041502 | 72 | 211 | 0.0 | 0.0 | 0.00 | 0.00 | 0.00 | 43 | 1011.9 |
| 20260906041424 | 72 | 210 | 0.0 | 0.0 | 0.00 | 0.00 | 0.00 | 44 | 1011.8 |
| 20260906040352 | 72 | 211 | 0.0 | 0.0 | 0.00 | 0.00 | 0.00 | 44 | 1011.7 |
| 20260906040004 | 72 | 211 | 0.0 | 1.0 | 0.00 | 0.00 | 0.00 | 45 | 1011.7 |
| 20260906035412 | 73 | 211 | 0.0 | 0.0 | 0.00 | 0.00 | 0.00 | 44 | 1011.5 |
| 20260906034607 | 72 | 210 | 0.0 | 1.0 | 0.00 | 0.00 | 0.00 | 45 | 1011.7 |
| 20260906034359 | 73 | 210 | 0.0 | 0.0 | 0.00 | 0.00 | 0.00 | 43 | 1011.6 |
| 20260906033404 | 73 | 211 | 0.0 | 0.0 | 0.00 | 0.00 | 0.00 | 44 | 1011.5 |
| 20260906033002 | 73 | 211 | 0.0 | 1.0 | 0.00 | 0.00 | 0.00 | 43 | 1011.5 |
| 20260906032342 | 74 | 210 | 0.0 | 0.0 | 0.00 | 0.00 | 0.00 | 46 | 1011.3 |
| 20260906031605 | 73 | 210 | 0.0 | 0.0 | 0.00 | 0.00 | 0.00 | 48 | 1011.3 |
| 20260906031347 | 74 | 210 | 0.0 | 0.0 | 0.00 | 0.00 | 0.00 | 47 | 1011.3 |
| 20260906030354 | 75 | 210 | 0.0 | 0.0 | 0.00 | 0.00 | 0.00 | 47 | 1011.1 |
| 20260906030109 | 75 | 210 | 0.0 | 1.0 | 0.00 | 0.00 | 0.00 | 46 | 1011.2 |
| 20260906025327 | 76 | 210 | 0.0 | 0.0 | 0.00 | 0.00 | 0.00 | 46 | 1011.2 |
| 20260906024503 | 76 | 210 | 0.0 | 2.0 | 0.00 | 0.00 | 0.00 | 45 | 1011.2 |
| 20260906024306 | 76 | 210 | 0.0 | 1.0 | 0.00 | 0.00 | 0.00 | 45 | 1011.2 |
| 20260906023258 | 77 | 227 | 0.0 | 2.0 | 0.00 | 0.00 | 0.00 | 44 | 1011.2 |
| 20260906023003 | 76 | 180 | 0.0 | 3.0 | 0.00 | 0.00 | 0.00 | 44 | 1011.3 |
| 20260906022233 | 77 | 229 | 0.0 | 2.0 | 0.00 | 0.00 | 0.00 | 44 | 1011.2 |
| 20260906021608 | 77 | 218 | 0.0 | 2.0 | 0.00 | 0.00 | 0.00 | 43 | 1011.2 |
| 20260906021254 | 78 | 199 | 0.0 | 1.0 | 0.00 | 0.00 | 0.00 | 43 | 1011.1 |
| 20260906020245 | 78 | 221 | 0.0 | 0.0 | 0.00 | 0.00 | 0.00 | 44 | 1011.1 |
| 20260906020107 | 78 | 221 | 0.0 | 4.0 | 0.00 | 0.00 | 0.00 | 44 | 1011.1 |
| 20260906015247 | 79 | 179 | 0.0 | 3.0 | 0.00 | 0.00 | 0.00 | 45 | 1011.1 |
| 20260906014504 | 79 | 202 | 1.0 | 4.0 | 0.00 | 0.00 | 0.00 | 43 | 1011.1 |
| 20260906014220 | 79 | 245 | 0.0 | 5.0 | 0.00 | 0.00 | 0.00 | 44 | 1011.0 |
| 20260906013146 | 80 | 203 | 1.0 | 5.0 | 0.00 | 0.00 | 0.00 | 45 | 1011.1 |
| 20260906013102 | 79 | 243 | 1.0 | 5.0 | 0.00 | 0.00 | 0.00 | 45 | 1011.1 |
| 20260906012136 | 80 | 197 | 1.0 | 4.0 | 0.00 | 0.00 | 0.00 | 44 | 1011.1 |
| 20260906011510 | 80 | 220 | 0.0 | 4.0 | 0.00 | 0.00 | 0.00 | 43 | 1011.0 |
| 20260906010006 | 82 | 223 | 1.0 | 6.0 | 0.00 | 0.00 | 0.00 | 43 | 1010.9 |
| 20260906010002 | 81 | 222 | 1.0 | 4.0 | 0.00 | 0.00 | 0.00 | 43 | 1011.0 |
| 20260906004605 | 82 | 203 | 2.0 | 7.0 | 0.00 | 0.00 | 0.00 | 42 | 1011.1 |
| 20260906003830 | 83 | 235 | 2.0 | 6.0 | 0.00 | 0.00 | 0.00 | 41 | 1010.9 |
| 20260906003003 | 83 | 214 | 2.0 | 7.0 | 0.00 | 0.00 | 0.00 | 40 | 1010.9 |
| 20260906002852 | 83 | 212 | 2.0 | 6.0 | 0.00 | 0.00 | 0.00 | 39 | 1010.9 |
| 20260906001900 | 83 | 170 | 2.0 | 5.0 | 0.00 | 0.00 | 0.00 | 38 | 1010.9 |
| 20260906001615 | 83 | 212 | 3.0 | 6.0 | 0.00 | 0.00 | 0.00 | 36 | 1011.0 |
| 20260905234528 | 84 | 165 | 3.0 | 10.0 | 0.00 | 0.00 | 0.00 | 42 | 1010.9 |
| 20260905234507 | 83 | 177 | 3.0 | 11.0 | 0.00 | 0.00 | 0.00 | 42 | 1010.9 |
| 20260905233552 | 85 | 235 | 3.0 | 11.0 | 0.00 | 0.00 | 0.00 | 43 | 1010.9 |
| 20260905233112 | 84 | 258 | 4.0 | 12.0 | 0.00 | 0.00 | 0.00 | 44 | 1010.9 |
| 20260905231505 | 85 | 210 | 4.0 | 7.0 | 0.00 | 0.00 | 0.00 | 42 | 1011.0 |
| 20260905231410 | 86 | 225 | 3.0 | 7.0 | 0.00 | 0.00 | 0.00 | 41 | 1011.0 |
| 20260905230426 | 86 | 213 | 3.0 | 7.0 | 0.00 | 0.00 | 0.00 | 40 | 1011.0 |
| 20260905230003 | 86 | 153 | 3.0 | 7.0 | 0.00 | 0.00 | 0.00 | 39 | 1011.1 |
| 20260905225405 | 86 | 205 | 3.0 | 9.0 | 0.00 | 0.00 | 0.00 | 39 | 1011.1 |
| 20260905224609 | 85 | 152 | 3.0 | 10.0 | 0.00 | 0.00 | 0.00 | 40 | 1011.2 |
| 20260905224413 | 86 | 217 | 3.0 | 11.0 | 0.00 | 0.00 | 0.00 | 40 | 1011.2 |
| 20260905223424 | 86 | 231 | 5.0 | 11.0 | 0.00 | 0.00 | 0.00 | 40 | 1011.3 |
| 20260905223008 | 86 | 181 | 5.0 | 9.0 | 0.00 | 0.00 | 0.00 | 40 | 1011.3 |
| 20260905222352 | 87 | 250 | 3.0 | 10.0 | 0.00 | 0.00 | 0.00 | 38 | 1011.3 |